Regional Weather Roundup
Issued by NWS

Home | Current Version | Previous Version | Graphics & Text | Print | Product List | Glossary Off
Versions: 1 2 3 4 5 6 7 8 9 10 11 12 13 14 15 16 17 18 19 20 21 22 23 24 25 26 27 28 29 30 31 32 33 34 35 36 37 38 39 40 41 42 43 44 45 46 47 48 49

000
ASUS43 KDMX 300207
RWRIA

WEATHER ROUNDUP FOR IOWA
NATIONAL WEATHER SERVICE DES MOINES IA
900 PM CDT SAT AUG 29 2015

NOTE: "FAIR" INDICATES FEW OR NO CLOUDS BELOW 12,000 FEET WITH NO
SIGNIFICANT WEATHER AND/OR OBSTRUCTIONS TO VISIBILITY.

* - THESE STATIONS ARE NOT NWS STATIONS...THUS NOT UNDER NWS
QUALITY CONTROL.  THEY ALSO DO NOT REPORT WEATHER SUCH
AS PRECIPITATION OR FOG.

IAZ001>003-012>014-020>022-031>034-043>046-300300-
   NORTHWEST IOWA

CITY           SKY/WX    TMP DP  RH WIND       PRES   REMARKS
CARROLL *      CLOUDY    64  63  94 CALM      30.06R
CHEROKEE *     MOCLDY    66  64  94 SE6       30.04S
DENISON *      CLOUDY    64  63  94 CALM      30.04R
LE MARS *      CLEAR     64  63  94 SE3       30.04R
ORANGE CITY *  CLEAR     64  63  94 SE5       30.03S
SHELDON *      CLOUDY    63  63 100 S6        30.02S
SPENCER        MOCLDY    64  61  90 S8        30.04S FOG
STORM LAKE *   CLOUDY    63  63 100 S5        30.06S
$$

IAZ055>058-069>071-079>083-090>094-300300-
   SOUTHWEST IOWA

CITY           SKY/WX    TMP DP  RH WIND       PRES   REMARKS
ATLANTIC *     CLOUDY    68  64  88 VRB5      30.05S
AUDUBON *      CLOUDY    64  61  88 CALM      30.07R
CLARINDA *     CLOUDY    70  66  88 NE3       30.06R
COUNCIL BLFS *   N/A     66  64  94 SE5       30.05S
CRESTON *      CLOUDY    66  64  94 NE5       30.07R
HARLAN  *      CLOUDY    63 N/A N/A CALM      30.08S
LAMONI         MOCLDY    69  65  86 NE7       30.04S
RED OAK *      CLOUDY    70  64  83 CALM      30.05R
SHENANDOAH *   CLOUDY    70  64  83 CALM      30.05R
$$

IAZ047>049-059>061-072>074-084-300300-
   CENTRAL IOWA

CITY           SKY/WX    TMP DP  RH WIND       PRES   REMARKS
AMES           CLOUDY    67  64  90 S3        30.05R
ANKENY *       CLOUDY    68  64  88 SE6       30.04R
CHARITON *     CLOUDY    68  66  94 N5        30.05R
DES MOINES     CLOUDY    70  64  81 NE5       30.04R
GRINNELL*      CLOUDY    66  63  88 CALM      30.05S
KNOXVILLE *    CLOUDY    70  64  83 NE6       30.03R
MARSHALLTOWN   CLOUDY    68  65  90 CALM      30.05R
PELLA *        MOCLDY    68  68 100 CALM      30.05R
PERRY *        CLOUDY    66  64  94 CALM      30.06R
$$

IAZ004>006-015-016-023>025-035-036-300300-
   NORTH CENTRAL IOWA

CITY           SKY/WX    TMP DP  RH WIND       PRES   REMARKS
ALGONA *       CLOUDY    61  59  94 SW3       30.06R
CLARION *      CLOUDY    63  61  94 S5        30.05S
ESTHERVILLE    MOCLDY    61  60  97 S6        30.04S
FORT DODGE *   CLOUDY    64  61  88 CALM      30.07R
MASON CITY     PTCLDY    63  63 100 S5        30.06S
FOREST CITY *  FOG       61  61 100 CALM      30.05S VSB 1
IOWA FALLS *   CLOUDY    66  64  94 CALM      30.07R
$$

IAZ007>011-017>019-026>030-037>042-050>054-066-300300-
   NORTHEAST IOWA

CITY           SKY/WX    TMP DP  RH WIND       PRES   REMARKS
CEDAR RAPIDS   MOCLDY    68  66  93 N6        30.04R
CHARLES CITY * PTCLDY    64  64 100 CALM      30.06R
CLINTON *      CLOUDY    68  66  94 N5        30.06R
DECORAH *      CLOUDY    66  64  94 SE3       30.05S
DUBUQUE        CLOUDY    68  64  87 NE5       30.06R
MONTICELLO *   CLOUDY    68  66  94 CALM      30.04S
OELWEIN *      CLOUDY    66  63  88 E7        30.06S
WATERLOO       CLOUDY    68  62  81 SE8       30.04R
$$

IAZ064-065-067-068-078-300300-
   EAST CENTRAL IOWA

CITY           SKY/WX    TMP DP  RH WIND       PRES   REMARKS
DAVENPORT      CLOUDY    69  67  93 NE3       30.04R
IOWA CITY      MOCLDY    71  67  87 N7        30.04R
MT. PLEASANT * CLEAR     70  66  88 CALM      30.03R FOG
MUSCATINE *    CLEAR     68  66  94 N5        30.03R
QUAD CITIES    CLEAR     67  64  90 CALM      30.03R
$$

IAZ062-063-075>077-085>089-095>099-300300-
   SOUTHEAST IOWA

CITY           SKY/WX    TMP DP  RH WIND       PRES   REMARKS
BURLINGTON     CLOUDY    73  70  90 NE8       30.02R
FAIRFIELD *    CLOUDY    68  66  94 NW5       30.04R
FORT MADISON * PTCLDY    70  68  94 N3        30.03R
KEOKUK *       PTCLDY    72  70  94 CALM      30.01R
OSKALOOSA *      N/A     66  64  94 CALM      30.05R
CENTERVILLE *  CLEAR     64  64 100 N3        30.05R
OTTUMWA        PTCLDY    68  67  96 NE6       30.02R
WASHINGTON *     N/A    N/A N/A N/A MISG        N/A
$$

ABBREVIATIONS USED IN REMARKS
   TC - TEMPERATURES IN CELSIUS
  WCI - WIND CHILL INDEX
   HX - HEAT INDEX
  VSB - VISIBILITY
$$



USA.gov is the U.S. government's official web portal to all federal, state and local government web resources and services.